Location: Newark
(47.4833°N, 7.5167°E)
Time: 19:55:02
(UTC+00:00)

N. Korean satellite - Pass Details

Date: 26 October 2019
Orbit: 456 x 506 km, 97.2° (Epoch: 22 November)

Event Time Altitude Azimuth Distance (km) Brightness Sun altitude
Rises 05:21:06 0° 14° (NNE) 2,579 10.3 -7.9°
Reaches altitude 10° 05:23:11 10° 17° (NNE) 1,700 9.4 -7.5°
Maximum altitude 05:26:50 68° 101° (E) 543 7.1 -6.9°
Drops below altitude 10° 05:30:30 10° 185° (S) 1,707 9.4 -6.3°
Sets 05:32:35 0° 188° (S) 2,590 10.3 -6.0°
